Location: *
(34.8620°S, 39.3380°E)
Time: 02:26:18
(UTC+00:00)

Cosmos 1300 - Pass Details

Date: 09 December 2021
Orbit: 509 x 511 km, 82.5° (Epoch: 22 January)

Event Time Altitude Azimuth Distance (km) Brightness Sun altitude
Exits shadow 21:54:29 17° 203° (SSW) 1,380 5.4 -31.5°
Drops below altitude 10° 21:55:34 10° 194° (SSW) 1,759 6.1 -31.4°
Sets 21:57:53 0° 184° (S) 2,654 7.4 -31.4°
